Other Public Products
Issued by NWS Grand Forks, ND

Home | Current Version | Previous Version | Graphics & Text | Print | Product List | Glossary On
Versions: 1 2 3 4 5 6 7 8 9 10 11 12 13 14 15 16 17 18 19 20 21 22 23 24 25 26 27 28 29 30 31 32 33 34 35 36 37 38 39 40 41 42 43 44 45 46 47 48 49 50
000
FPUS83 KFGF 200310
OPUFGF
PRAIRIE TO PINES WEATHER ROUNDUP
NATIONAL WEATHER SERVICE EASTERN NORTH DAKOTA/GRAND FORKS ND
1000 PM CDT SAT APR 19 2014

 **SATELLITE DATA USED TO AUGMENT SKY COVER AT AUTOMATED STATIONS**
 *****  WEATHER ACROSS EASTERN NORTH DAKOTA  *****

CITY           SKY/WX    TMP DP  RH WIND       PRES   REMARKS
GRAND FORKS    CLEAR     42  35  76 W6        29.99R
GRAND FORKS AF CLEAR     42  34  74 NW5       29.99R
GRAND CITY NWS   N/A     43 N/A N/A W7          N/A
BUXTON         NOT AVBL
DEVILS LAKE    CLEAR     36  28  75 NW6       29.99R
FARGO          CLEAR     51  38  60 N13       29.99R
WAHPETON ARPT  CLEAR     46  27  46 S6        29.97R
$$

 *****  WEATHER ACROSS CENTRAL AND WESTERN NORTH DAKOTA  *****

CITY           SKY/WX    TMP DP  RH WIND       PRES   REMARKS
JAMESTOWN      CLEAR     43  36  76 N3        29.99R
BISMARCK       CLEAR     46  32  58 NE8       29.98R
MINOT          CLEAR     41  33  73 SE5       29.95R
MINOT AFB      CLEAR     37  33  85 CALM      29.95R
GARRISON         N/A     45  33  63 CALM      29.95R
WILLISTON      CLEAR     38  31  76 CALM      29.91R
DICKINSON      CLEAR     41  26  55 S7        29.94R
HETTINGER      CLEAR     39  23  52 CALM      29.98R
$$

 *****  OTHER OBSERVATIONS NORTHEAST NORTH DAKOTA  *****

CITY           SKY/WX    TMP DP  RH WIND       PRES   REMARKS
WALHALLA       FAIR      39  32  75 W7        29.98R
LANGDON        FAIR      34  28  80 W9        29.97R
CAVALIER       FAIR      41  32  70 W10       29.98R
GRAFTON        FAIR      39  34  81 W9        29.98R
CANDO          FAIR      32  30  93 SW5       29.99R
FORT TOTTEN      N/A     41  32  70 CALM      29.95S
ROLLA          FAIR      36  32  87 CALM      29.97R
RUGBY          FAIR      32  28  86 E3        29.97R
 ***** THE ABOVE OBSERVATIONS ARE NON NWS ARE NOT QUALITY
        CONTROLLED AND MAY MIS-REPORT RAIN FOR SNOW...
$$

 *****  OTHER OBSERVATIONS SOUTHEAST NORTH DAKOTA *****

CITY           SKY/WX    TMP DP  RH WIND       PRES   REMARKS
COOPERSTOWN    FAIR      41  39  93 N5        29.99R
VALLEY CITY    FAIR      46  39  76 N7        30.00R
OAKES          FAIR      48  37  66 N10       29.98R
GWINNER        CLEAR     46  32  57 N9        29.99R
BUFFALO        NOT AVBL
WYNDMERE       NOT AVBL
 ***** THE ABOVE OBSERVATIONS ARE NON NWS ARE NOT QUALITY
       CONTROLLED AND MAY MIS-REPORT RAIN FOR SNOW...
$$

  *****  WEATHER ACROSS NORTHERN MINNESOTA  *****

CITY           SKY/WX    TMP DP  RH WIND       PRES   REMARKS
FLAG ISLAND    CLOUDY    43  34  70 W15       29.93R
WARROAD        CLEAR     45  37  76 W8        29.94R
ROSEAU         CLEAR     45  36  70 W8        29.95R
HALLOCK        CLOUDY    41  36  81 NW5       29.97R
THF RVR FALLS  CLEAR     46  36  66 W8        29.98R
HALSTAD          N/A     46  37  71 N10         N/A
FOSSTON        CLEAR     43  36  75 CALM      29.99R
BAUDETTE       CLEAR     47  37  68 VRB5      29.93R
WASKISH        FAIR      41  37  87 W6        29.96R
CROOKSTON      CLEAR     46  37  71 NW10      30.00R
$$
  *****  WEATHER ACROSS CENTRAL AND WEST MINNESOTA  *****

CITY           SKY/WX    TMP DP  RH WIND       PRES   REMARKS
BEMIDJI        CLEAR     46  37  71 NW9       29.96R
PARK RAPIDS    CLEAR     49  31  49 S7        29.96R
WADENA         CLEAR     46  32  57 CALM      29.98R
DETROIT LAKES  CLEAR     52  34  50 NW12      29.99R
MOORHEAD       NOT AVBL
FERGUS FALLS   CLEAR     52  30  43 S6        29.94S
ELBOW LAKE     FAIR      49  34  54 SE3       29.98S
MORRIS MN      CLEAR     48  32  53 SW5       29.98S
STAPLES        CLEAR     45  32  61 CALM      29.98S
WHEATON        CLEAR     57  34  41 S7        30.00R
$$
  *****  WEATHER ELSEWHERE ACROSS MINNESOTA  *****

CITY           SKY/WX    TMP DP  RH WIND       PRES   REMARKS
DULUTH         CLEAR     33  29  85 SE6       30.00S
INTRNTL FALLS  CLEAR     48  35  60 W6        29.92R
ELY            CLEAR     43  36  75 S7        29.97S
CLOQUET        CLEAR     32  28  86 CALM      30.00F
BRAINERD       CLEAR     48  29  47 CALM      29.99R
HIBBING        CLEAR     46  37  71 S5        29.97R
ALEXANDRIA     CLEAR     53  30  41 CALM      30.00R
SAINT CLOUD    PTCLDY    46  43  89 CALM      30.00R FOG
MINNEAPOLIS    LGT RAIN  56  54  93 CALM      30.01R
$$

  *****  WEATHER ACROSS SOUTH DAKOTA  *****

CITY           SKY/WX    TMP DP  RH WIND       PRES   REMARKS
SIOUX FALLS    CLOUDY    59  38  45 N5        30.02R
BROOKINGS      NOT AVBL
WATERTOWN      MOCLDY    49  30  48 S6        30.01R
HURON          MOCLDY    55  30  38 SW6       30.01R
SISSETON         N/A     47  34  60 SW6       29.98R
ABERDEEN       PTCLDY    45  26  47 SW10      29.99R
MITCHELL       MOCLDY    54  27  35 W3        30.02R
PIERRE         MOCLDY    54  26  34 S3        30.00R
MOBRIDGE       CLEAR     42  27  55 CALM      29.96R
RAPID CITY     PTCLDY    46  30  53 SE6       30.00R
$$

  *****  SOME WEATHER IN NEARBY STATES *****

CITY           SKY/WX    TMP DP  RH WIND       PRES   REMARKS
GLASGOW MT     PTCLDY    44  28  53 E9        29.85S
GREAT FALLS MT CLEAR     51  18  27 CALM      29.80R
CHEYENNE WY    MOCLDY    50  41  71 S15       30.09R
SCOTTSBLUFF NE CLEAR     55  34  45 SE10      30.02R
OMAHA NE       CLOUDY    72  43  35 S20       29.99R
DES MOINES IA  PTCLDY    65  43  44 S9        30.08R
DAVENPORT IA   MOCLDY    60  35  39 S10       30.18R
CHICAGO IL     MOCLDY    53  35  50 E6        30.24R
EAU CLAIRE WI  CLOUDY    60  43  53 S8        30.03F
LA CROSSE WI   CLOUDY    66  38  35 S15       30.06S
$$

  *****  SOME NATIONAL WEATHER *****

CITY           SKY/WX    TMP DP  RH WIND       PRES   REMARKS
LA GUARDIA NY  MOCLDY    55  23  28 NE13      30.34R
RALEIGH NC     CLOUDY    53  43  68 NE10      30.23R
ATLANTA GA     MOCLDY    56  40  55 NE20      30.19R
NEW ORLEANS LA PTCLDY    68  58  70 NE6       30.11S
OKLAHOMA CITY  PTCLDY    62  49  62 S12       30.07S
ALBUQUERQUE NM CLOUDY    50  46  86 NE13      30.13R
SALT LAKE CITY PTCLDY    61  37  41 CALM      29.97R
LOS ANGELES CA PTCLDY    61  55  81 W8        30.00R
BOISE ID       PTCLDY    70  23  17 CALM      29.83R
SEATTLE WA     MOCLDY    48  43  82 SW15G24   30.07R
$$

*** WEATHER ACROSS MANITOBA...SASKATCHEWAN AND ONTARIO ***
                ***ONTARIO***

CITY           SKY/WX    TMP DP  RH WIND       PRES   REMARKS
GERALDTON      CLOUDY    34  32  93 S15G23    30.07  WCI  24
THUNDER BAY    PTCLDY    32  30  93 NE7       30.06S
SIOUX LOOKOUT  CLOUDY    36  34  93 S7        29.86S
TORONTO        CLEAR     43  27  52 SE3       30.41R
BIG TROUT LK   CLOUDY    32  30  93 SE16G25   29.83F WCI  21
PICKLE LAKE    NOT AVBL
DRYDEN         CLOUDY    45  37  76 W14       29.87R
KENORA         CLOUDY    41  34  75 W12G21    29.92R
$$
                *** MANITOBA***

CITY           SKY/WX    TMP DP  RH WIND       PRES   REMARKS
BRANDON        PTCLDY    32  30  93 NW6       29.95R
DAUPHIN        CLOUDY    36  28  75 W16G23    29.91R
ISLAND LAKE    FLURRIES  32  32 100 SE3       29.67
PILOT MOUND      N/A     36  30  80 NW5         N/A
THE PAS        MOCLDY    30  30 100 NW9       29.81R WCI  22
THOMPSON       LGT SNOW  32  32 100 NE8       29.76S WCI  25
WINNIPEG       PTCLDY    37  32  81 W12       29.95R
LYNN LAKE      FLURRIES  30  27  86 E8        29.84S WCI  23
CHURCHILL      MOCLDY    19  18  93 E10       30.00F WCI   8
GILLAM         LGT SNOW  32  32 100 E6        29.82F
$$
                ***SASKATCHEWAN***

CITY           SKY/WX    TMP DP  RH WIND       PRES   REMARKS
ESTEVAN        PTCLDY    37  34  87 E6        29.93S
KINDERSLEY     PTCLDY    41  34  75 E12       29.80F
LLOYDMINSTER   PTCLDY    37  32  81 SE13      29.78R
PRINCE ALBERT  NOT AVBL
REGINA         CLEAR     36  32  87 CALM      29.92R
YORKTON        CLOUDY    34  28  80 CALM      29.91R



USA.gov is the U.S. government's official web portal to all federal, state and local government web resources and services.